Location: ?????
(55.6500°N, 37.2500°E)
Time: 08:09:04
(UTC+00:00)

GP-B - Pass Details

Date: 19 May 2025
Orbit: 619 x 624 km, 89.8° (Epoch: 23 June)

Event Time Altitude Azimuth Distance (km) Brightness Sun altitude
Rises 21:30:20 0° 360° (N) 2,921 8.5 -14.4°
Reaches altitude 10° 21:32:34 10° 359° (N) 2,009 7.1 -14.4°
Maximum altitude 21:36:59 80° 274° (W) 640 3.1 -14.4°
Enters shadow 21:39:37 24° 189° (S) 1,303 4.1 -14.3°
